Martinsburg, WV

9:41 PM EST on December 15, 2019 (GMT -0500)
Eastern W Va Regional-Shepherd

Weather History for KMRB - October, 2019

Change the Weather History Date:

Wednesday, October 16, 2019

  Actual Average Record
Temperature  
Mean Temperature 51 °F 54 °F  
Max Temperature 57 °F 65 °F 86 °F (1962)
Min Temperature 45 °F 42 °F 29 °F (1939)
Degree Days  
Heating Degree Days 14 12  
Month to date heating degree days 101 147  
Since 1 July heating degree days 113 238  
Cooling Degree Days 0 0  
Month to date cooling degree days 37 8  
Year to date cooling degree days 1280 893  
Growing Degree Days 1 (Base 50)    
Moisture  
Dew Point 48 °F    
Average Humidity 86    
Maximum Humidity 100    
Minimum Humidity 59    
Precipitation  
Precipitation 0.60 in 0.09 in 2.75 in (1942)
Month to date precipitation 1.80 1.60  
Year to date precipitation 36.70 31.41  
Sea Level Pressure  
Sea Level Pressure 29.70 in    
Wind  
Wind Speed 5 mph ()    
Max Wind Speed 31 mph    
Max Gust Speed 43 mph    
Visibility 6.6 miles    
Events Rain    
T = Trace of Precipitation, MM = Missing Value Source: Averaged Metar Reports

Daily Weather History Graph

Daily Weather History Graph

Search for Another Location

Airport or City:

Astronomy

Oct. 16, 2019 Rise Set
Actual Time 7:22 AM EDT 6:31 PM EDT
Civil Twilight 6:55 AM EDT 6:58 PM EDT
Nautical Twilight 6:24 AM EDT 7:29 PM EDT
Astronomical Twilight 5:53 AM EDT 8:01 PM EDT
Moon 8:24 PM EDT 9:50 AM EDT
Length of Visible Light 12h 03m
Length of Day
11h 09m
Waning Gibbous, 93% of the Moon is Illuminated
Oct 16
Waning Gibbous
Oct 21
Last Quarter
Oct 27
New
Nov 4
First Quarter
Nov 12
Full

Hourly Weather History & Observations

Time (EDT) Temp. Windchill Dew Point Humidity Pressure Visibility Wind Dir Wind Speed Gust Speed Precip Events Conditions
12:53 AM 54.0 °F - 46.0 °F 75% 29.95 in 10.0 mi SSE 5.8 mph - N/A   Clear
1:53 AM 46.9 °F - 43.0 °F 86% 29.94 in 10.0 mi Calm Calm - N/A   Clear
2:53 AM 46.0 °F 44.8 °F 42.1 °F 86% 29.91 in 10.0 mi NW 3.5 mph - N/A   Clear
3:53 AM 46.0 °F 44.8 °F 43.0 °F 89% 29.89 in 10.0 mi NW 3.5 mph - N/A   Clear
4:53 AM 46.0 °F - 43.0 °F 89% 29.87 in 10.0 mi Calm Calm - N/A   Clear
5:53 AM 46.0 °F - 43.0 °F 89% 29.85 in 10.0 mi Calm Calm - N/A   Clear
6:53 AM 48.0 °F - 46.0 °F 93% 29.84 in 9.0 mi Calm Calm - N/A   Mostly Cloudy
7:53 AM 48.9 °F - 46.9 °F 93% 29.81 in 10.0 mi Calm Calm - N/A   Mostly Cloudy
8:53 AM 52.0 °F - 50.0 °F 93% 29.77 in 6.0 mi SSE 5.8 mph - N/A   Partly Cloudy
9:53 AM 55.9 °F - 53.1 °F 90% 29.72 in 8.0 mi SE 9.2 mph - 0.00 in Rain Light Rain
10:53 AM 55.0 °F - 54.0 °F 96% 29.72 in 3.0 mi SSE 3.5 mph - 0.05 in Rain Rain
11:01 AM 55.0 °F - 54.0 °F 96% 29.71 in 2.0 mi SE 3.5 mph - 0.02 in Rain Rain
11:13 AM 55.0 °F - 53.1 °F 93% 29.69 in 1.5 mi ESE 3.5 mph - 0.07 in Rain Heavy Rain
11:30 AM 55.0 °F - 54.0 °F 96% 29.69 in 1.2 mi Calm Calm - 0.14 in Rain Heavy Rain
11:53 AM 55.0 °F - 54.0 °F 96% 29.68 in 1.8 mi SE 3.5 mph - 0.24 in Rain Rain
11:57 AM 55.0 °F - 54.0 °F 96% 29.68 in 2.0 mi SSE 3.5 mph - 0.01 in Rain Rain
12:04 PM 55.0 °F - 54.0 °F 96% 29.67 in 2.0 mi South 3.5 mph - 0.02 in Rain Rain
12:39 PM 55.0 °F - 54.0 °F 96% 29.67 in 1.8 mi SW 8.1 mph - 0.09 in Rain Rain
12:45 PM 55.0 °F - 53.1 °F 93% 29.66 in 3.0 mi SSW 6.9 mph - 0.10 in Rain Light Rain
12:53 PM 54.0 °F - 53.1 °F 97% 29.65 in 4.0 mi South 6.9 mph - 0.11 in Rain Light Rain
1:01 PM 54.0 °F - 53.1 °F 97% 29.65 in 4.0 mi South 4.6 mph - 0.00 in Rain Light Rain
1:16 PM 54.0 °F - 53.1 °F 97% 29.63 in 2.0 mi Calm Calm - 0.05 in Rain Rain
1:43 PM 54.0 °F - 53.1 °F 97% 29.60 in 3.0 mi Calm Calm - 0.12 in Rain Rain
1:53 PM 54.0 °F - 52.0 °F 93% 29.61 in 3.0 mi Calm Calm - 0.13 in Rain Light Rain
2:00 PM 54.0 °F - 52.0 °F 93% 29.60 in 4.0 mi West 3.5 mph - 0.01 in Rain Light Rain
2:53 PM 55.0 °F - 53.1 °F 93% 29.59 in 8.0 mi West 6.9 mph - 0.06 in Rain Light Rain
3:53 PM 55.9 °F - 52.0 °F 87% 29.58 in 10.0 mi West 8.1 mph - 0.01 in   Overcast
4:53 PM 55.0 °F - 46.9 °F 74% 29.58 in 10.0 mi WNW 13.8 mph 24.2 mph N/A   Overcast
5:53 PM 54.0 °F - 42.1 °F 64% 29.60 in 10.0 mi West 15.0 mph 24.2 mph N/A   Overcast
6:53 PM 53.1 °F - 41.0 °F 64% 29.59 in 10.0 mi West 13.8 mph - N/A   Mostly Cloudy
7:53 PM 54.0 °F - 39.9 °F 59% 29.62 in 10.0 mi WNW 20.7 mph 26.5 mph N/A   Overcast
8:53 PM 51.1 °F - 37.0 °F 59% 29.63 in 10.0 mi West 12.7 mph 17.3 mph N/A   Overcast
9:53 PM 50.0 °F - 37.0 °F 61% 29.62 in 10.0 mi West 18.4 mph 24.2 mph N/A   Mostly Cloudy
10:53 PM 50.0 °F - 37.0 °F 61% 29.60 in 10.0 mi West 9.2 mph - N/A   Mostly Cloudy
11:53 PM 50.0 °F - 37.0 °F 61% 29.57 in 10.0 mi West 26.5 mph 35.7 mph N/A   Clear